date,time,SUV Intensity [MED/Hr],UV Index,Daily total [MED],Since Last [MED]
12/08/2022,00:11:33,0.002,0.0,0.0,0.0
12/08/2022,00:12:23,0.001,0.0,0.0,0.0
12/08/2022,00:13:33,0.001,0.0,0.0,0.0
12/08/2022,00:14:33,0.000,0.0,0.0,0.0
12/08/2022,00:15:32,-0.001,0.0,0.0,0.0
12/08/2022,00:16:49,0.000,0.0,0.0,0.0
12/08/2022,00:18:33,0.001,0.0,0.0,0.0
12/08/2022,00:19:33,0.001,0.0,0.0,0.0
12/08/2022,00:20:32,0.000,0.0,0.0,0.0
12/08/2022,00:21:32,0.000,0.0,0.0,0.0
12/08/2022,00:22:32,0.000,0.0,0.0,0.0
12/08/2022,00:23:33,0.001,0.0,0.0,0.0
12/08/2022,00:24:33,0.001,0.0,0.0,0.0
12/08/2022,00:25:33,0.001,0.0,0.0,0.0
12/08/2022,00:26:33,0.001,0.0,0.0,0.0
12/08/2022,00:27:33,0.001,0.0,0.0,0.0
12/08/2022,00:28:33,0.001,0.0,0.0,0.0
12/08/2022,00:29:32,0.001,0.0,0.0,0.0
12/08/2022,00:30:33,0.001,0.0,0.0,0.0
12/08/2022,00:31:32,0.001,0.0,0.0,0.0
12/08/2022,00:32:32,0.000,0.0,0.0,0.0
12/08/2022,00:33:32,0.001,0.0,0.0,0.0
12/08/2022,00:34:33,0.001,0.0,0.0,0.0
12/08/2022,00:35:32,0.001,0.0,0.0,0.0
12/08/2022,00:36:32,0.001,0.0,0.0,0.0
12/08/2022,00:37:33,0.000,0.0,0.0,0.0
12/08/2022,00:38:33,0.001,0.0,0.0,0.0
12/08/2022,00:39:32,0.001,0.0,0.0,0.0
12/08/2022,00:40:33,0.002,0.0,0.0,0.0
12/08/2022,00:41:32,0.001,0.0,0.0,0.0
12/08/2022,00:42:32,0.001,0.0,0.0,0.0
12/08/2022,00:43:33,0.001,0.0,0.0,0.0
12/08/2022,00:44:32,0.001,0.0,0.0,0.0
12/08/2022,00:45:32,0.001,0.0,0.0,0.0
12/08/2022,00:46:33,0.002,0.0,0.0,0.0
12/08/2022,00:47:32,0.001,0.0,0.0,0.0
12/08/2022,00:48:32,-0.000,0.0,0.0,0.0
12/08/2022,00:49:33,0.001,0.0,0.0,0.0
12/08/2022,00:50:32,-0.000,0.0,0.0,0.0
12/08/2022,00:51:32,0.001,0.0,0.0,0.0
12/08/2022,00:52:33,-0.000,0.0,0.0,0.0
12/08/2022,00:53:32,0.001,0.0,0.0,0.0
12/08/2022,00:54:33,0.001,0.0,0.0,0.0
12/08/2022,00:55:32,0.001,0.0,0.0,0.0
12/08/2022,00:56:32,0.001,0.0,0.0,0.0
12/08/2022,00:57:40,0.000,0.0,0.0,0.0
12/08/2022,00:58:32,0.001,0.0,0.0,0.0
12/08/2022,00:59:32,0.001,0.0,0.0,0.0
12/08/2022,01:00:41,0.001,0.0,0.0,0.0
12/08/2022,01:01:33,0.001,0.0,0.0,0.0
12/08/2022,01:02:41,0.001,0.0,0.0,0.0
12/08/2022,01:03:49,0.001,0.0,0.0,0.0
12/08/2022,01:05:33,0.001,0.0,0.0,0.0
12/08/2022,01:06:33,0.000,0.0,0.0,0.0
12/08/2022,01:07:33,0.002,0.0,0.0,0.0
12/08/2022,01:08:32,0.001,0.0,0.0,0.0
12/08/2022,01:09:33,0.002,0.0,0.0,0.0
12/08/2022,01:10:33,0.001,0.0,0.0,0.0
12/08/2022,01:11:32,0.001,0.0,0.0,0.0
12/08/2022,01:12:32,0.001,0.0,0.0,0.0
12/08/2022,01:13:40,0.002,0.0,0.0,0.0
12/08/2022,01:14:32,0.001,0.0,0.0,0.0
12/08/2022,01:15:23,0.001,0.0,0.0,0.0
12/08/2022,01:16:33,0.001,0.0,0.0,0.0
12/08/2022,01:17:33,0.001,0.0,0.0,0.0
12/08/2022,01:18:41,0.002,0.0,0.0,0.0
12/08/2022,01:19:33,0.000,0.0,0.0,0.0
12/08/2022,01:20:33,0.001,0.0,0.0,0.0
12/08/2022,01:21:33,0.001,0.0,0.0,0.0
12/08/2022,01:22:32,0.001,0.0,0.0,0.0
12/08/2022,01:23:32,0.001,0.0,0.0,0.0
12/08/2022,01:24:34,0.001,0.0,0.0,0.0
12/08/2022,01:25:32,0.002,0.0,0.0,0.0
12/08/2022,01:26:33,0.002,0.0,0.0,0.0
12/08/2022,01:27:32,0.001,0.0,0.0,0.0
12/08/2022,01:28:32,0.001,0.0,0.0,0.0
12/08/2022,01:29:33,0.001,0.0,0.0,0.0
12/08/2022,01:30:32,0.002,0.0,0.0,0.0
12/08/2022,01:31:32,0.002,0.0,0.0,0.0
12/08/2022,01:32:33,0.002,0.0,0.0,0.0
12/08/2022,01:33:33,0.001,0.0,0.0,0.0
12/08/2022,01:34:33,0.001,0.0,0.0,0.0
12/08/2022,01:35:33,0.002,0.0,0.0,0.0
12/08/2022,01:36:33,0.001,0.0,0.0,0.0
12/08/2022,01:37:32,0.002,0.0,0.0,0.0
12/08/2022,01:38:32,0.002,0.0,0.0,0.0
12/08/2022,01:39:32,0.002,0.0,0.0,0.0
12/08/2022,01:40:33,0.002,0.0,0.0,0.0
12/08/2022,01:41:32,0.001,0.0,0.0,0.0
12/08/2022,01:42:33,0.002,0.0,0.0,0.0
12/08/2022,01:43:33,0.002,0.0,0.0,0.0
12/08/2022,01:44:49,0.002,0.0,0.0,0.0
12/08/2022,01:46:42,0.002,0.0,0.0,0.0
12/08/2022,01:47:31,0.002,0.0,0.0,0.0
12/08/2022,01:48:32,0.002,0.0,0.0,0.0
12/08/2022,01:49:33,0.002,0.0,0.0,0.0
12/08/2022,01:50:32,0.002,0.0,0.0,0.0
12/08/2022,01:51:33,0.001,0.0,0.0,0.0
12/08/2022,01:52:33,0.002,0.0,0.0,0.0
12/08/2022,01:53:33,0.002,0.0,0.0,0.0
12/08/2022,01:54:41,0.002,0.0,0.0,0.0
12/08/2022,01:55:32,0.002,0.0,0.0,0.0
12/08/2022,01:56:32,0.002,0.0,0.0,0.0
12/08/2022,01:57:33,0.002,0.0,0.0,0.0
12/08/2022,01:58:33,0.001,0.0,0.0,0.0
12/08/2022,01:59:33,0.002,0.0,0.0,0.0
12/08/2022,02:00:33,0.002,0.0,0.0,0.0
12/08/2022,02:01:33,0.002,0.0,0.0,0.0
12/08/2022,02:02:32,0.002,0.0,0.0,0.0
12/08/2022,02:03:42,0.002,0.0,0.0,0.0
12/08/2022,02:04:32,0.002,0.0,0.0,0.0
12/08/2022,02:05:41,0.002,0.0,0.0,0.0
12/08/2022,02:06:33,0.002,0.0,0.0,0.0
12/08/2022,02:07:33,0.002,0.0,0.0,0.0
12/08/2022,02:08:32,0.002,0.0,0.0,0.0
12/08/2022,02:09:32,0.002,0.0,0.0,0.0
12/08/2022,02:10:41,0.002,0.0,0.0,0.0
12/08/2022,02:11:33,0.002,0.0,0.0,0.0
12/08/2022,02:12:33,0.002,0.0,0.0,0.0
12/08/2022,02:13:33,0.002,0.0,0.0,0.0
12/08/2022,02:14:33,0.002,0.0,0.0,0.0
12/08/2022,02:15:32,0.002,0.0,0.0,0.0
12/08/2022,02:16:33,0.002,0.0,0.0,0.0
12/08/2022,02:17:32,0.002,0.0,0.0,0.0
12/08/2022,02:18:33,0.002,0.0,0.0,0.0
12/08/2022,02:19:32,0.002,0.0,0.0,0.0
12/08/2022,02:20:32,0.002,0.0,0.0,0.0
12/08/2022,02:21:33,0.002,0.0,0.0,0.0
12/08/2022,02:22:33,0.002,0.0,0.0,0.0
12/08/2022,02:23:33,0.002,0.0,0.0,0.0
12/08/2022,02:24:33,0.002,0.0,0.0,0.0
12/08/2022,02:25:32,0.002,0.0,0.0,0.0
12/08/2022,02:26:33,0.002,0.0,0.0,0.0
12/08/2022,02:27:33,0.002,0.0,0.0,0.0
12/08/2022,02:28:33,0.002,0.0,0.0,0.0
12/08/2022,02:29:33,0.002,0.0,0.0,0.0
12/08/2022,02:30:33,0.002,0.0,0.0,0.0
12/08/2022,02:31:32,0.002,0.0,0.0,0.0
12/08/2022,02:32:33,0.002,0.0,0.0,0.0
12/08/2022,02:33:33,0.002,0.0,0.0,0.0
12/08/2022,02:34:33,0.002,0.0,0.0,0.0
12/08/2022,02:35:33,0.002,0.0,0.0,0.0
12/08/2022,02:36:33,0.002,0.0,0.0,0.0
12/08/2022,02:37:32,0.002,0.0,0.0,0.0
12/08/2022,02:38:33,0.002,0.0,0.0,0.0
12/08/2022,02:39:33,0.002,0.0,0.0,0.0
12/08/2022,02:40:33,0.002,0.0,0.0,0.0
12/08/2022,02:41:33,0.002,0.0,0.0,0.0
12/08/2022,02:42:32,0.002,0.0,0.0,0.0
12/08/2022,02:43:33,0.002,0.0,0.0,0.0
12/08/2022,02:44:32,0.002,0.0,0.0,0.0
12/08/2022,02:45:33,0.002,0.0,0.0,0.0
12/08/2022,02:46:33,0.002,0.0,0.0,0.0
12/08/2022,02:47:33,0.002,0.0,0.0,0.0
12/08/2022,02:48:33,0.002,0.0,0.0,0.0
12/08/2022,02:49:41,0.002,0.0,0.0,0.0
12/08/2022,02:50:33,0.002,0.0,0.0,0.0
12/08/2022,02:51:32,0.002,0.0,0.0,0.0
12/08/2022,02:52:41,0.002,0.0,0.0,0.0
12/08/2022,02:53:32,0.002,0.0,0.0,0.0
12/08/2022,02:54:32,0.002,0.0,0.0,0.0
12/08/2022,02:55:33,0.002,0.0,0.0,0.0
12/08/2022,02:56:32,0.002,0.0,0.0,0.0
12/08/2022,02:57:32,0.002,0.0,0.0,0.0
12/08/2022,02:58:33,0.002,0.0,0.0,0.0
12/08/2022,02:59:32,0.002,0.0,0.0,0.0
12/08/2022,03:00:41,0.002,0.0,0.0,0.0
12/08/2022,03:01:33,0.002,0.0,0.0,0.0
12/08/2022,03:02:33,0.002,0.0,0.0,0.0
12/08/2022,03:03:33,0.003,0.0,0.0,0.0
12/08/2022,03:04:33,0.003,0.0,0.0,0.0
12/08/2022,03:05:32,0.003,0.0,0.0,0.0
12/08/2022,03:06:33,0.002,0.0,0.0,0.0
12/08/2022,03:07:33,0.002,0.0,0.0,0.0
12/08/2022,03:08:33,0.003,0.0,0.0,0.0
12/08/2022,03:09:33,0.003,0.0,0.0,0.0
12/08/2022,03:10:33,0.003,0.0,0.0,0.0
12/08/2022,03:11:33,0.003,0.0,0.0,0.0
12/08/2022,03:12:33,0.003,0.0,0.0,0.0
12/08/2022,03:13:32,0.003,0.0,0.0,0.0
12/08/2022,03:14:32,0.002,0.0,0.0,0.0
12/08/2022,03:15:33,0.002,0.0,0.0,0.0
12/08/2022,03:16:33,0.002,0.0,0.0,0.0
12/08/2022,03:17:33,0.002,0.0,0.0,0.0
12/08/2022,03:18:33,0.002,0.0,0.0,0.0
12/08/2022,03:19:32,0.002,0.0,0.0,0.0
12/08/2022,03:20:33,0.003,0.0,0.0,0.0
12/08/2022,03:21:33,0.003,0.0,0.0,0.0
12/08/2022,03:22:32,0.003,0.0,0.0,0.0
12/08/2022,03:23:33,0.003,0.0,0.0,0.0
12/08/2022,03:24:33,0.003,0.0,0.0,0.0
12/08/2022,03:25:33,0.002,0.0,0.0,0.0
12/08/2022,03:26:33,0.004,0.0,0.0,0.0
12/08/2022,03:27:33,0.003,0.0,0.0,0.0
12/08/2022,03:28:33,0.002,0.0,0.0,0.0
12/08/2022,03:29:33,0.003,0.0,0.0,0.0
12/08/2022,03:30:33,0.003,0.0,0.0,0.0
12/08/2022,03:31:41,0.002,0.0,0.0,0.0
12/08/2022,03:32:34,0.002,0.0,0.0,0.0
12/08/2022,03:33:33,0.003,0.0,0.0,0.0
12/08/2022,03:34:32,0.003,0.0,0.0,0.0
12/08/2022,03:35:33,0.003,0.0,0.0,0.0
12/08/2022,03:36:42,0.002,0.0,0.0,0.0
12/08/2022,03:37:31,0.002,0.0,0.0,0.0
12/08/2022,03:38:33,0.002,0.0,0.0,0.0
12/08/2022,03:39:41,0.003,0.0,0.0,0.0
12/08/2022,03:40:32,0.002,0.0,0.0,0.0
12/08/2022,03:41:32,0.002,0.0,0.0,0.0
12/08/2022,03:42:33,0.002,0.0,0.0,0.0
12/08/2022,03:43:33,0.002,0.0,0.0,0.0
12/08/2022,03:44:33,0.003,0.0,0.0,0.0
12/08/2022,03:45:32,0.003,0.0,0.0,0.0
12/08/2022,03:46:33,0.002,0.0,0.0,0.0
12/08/2022,03:47:33,0.002,0.0,0.0,0.0
12/08/2022,03:48:33,0.002,0.0,0.0,0.0
12/08/2022,03:49:33,0.003,0.0,0.0,0.0
12/08/2022,03:50:33,0.003,0.0,0.0,0.0
12/08/2022,03:51:33,0.003,0.0,0.0,0.0
12/08/2022,03:52:33,0.003,0.0,0.0,0.0
12/08/2022,03:53:33,0.003,0.0,0.0,0.0
12/08/2022,03:54:33,0.003,0.0,0.0,0.0
12/08/2022,03:55:33,0.003,0.0,0.0,0.0
12/08/2022,03:56:33,0.003,0.0,0.0,0.0
12/08/2022,03:57:33,0.003,0.0,0.0,0.0
12/08/2022,03:58:33,0.003,0.0,0.0,0.0
12/08/2022,03:59:33,0.003,0.0,0.0,0.0
12/08/2022,04:00:33,0.002,0.0,0.0,0.0
12/08/2022,04:01:33,0.003,0.0,0.0,0.0
12/08/2022,04:02:33,0.003,0.0,0.0,0.0
12/08/2022,04:03:32,0.003,0.0,0.0,0.0
12/08/2022,04:04:32,0.003,0.0,0.0,0.0
12/08/2022,04:05:33,0.003,0.0,0.0,0.0
12/08/2022,04:06:33,0.002,0.0,0.0,0.0
12/08/2022,04:07:33,0.002,0.0,0.0,0.0
12/08/2022,04:08:32,0.003,0.0,0.0,0.0
12/08/2022,04:09:33,0.003,0.0,0.0,0.0
12/08/2022,04:10:42,0.002,0.0,0.0,0.0
12/08/2022,04:11:34,0.003,0.0,0.0,0.0
12/08/2022,04:12:33,0.003,0.0,0.0,0.0
12/08/2022,04:13:41,0.004,0.0,0.0,0.0
12/08/2022,04:14:33,0.002,0.0,0.0,0.0
12/08/2022,04:15:32,0.003,0.0,0.0,0.0
12/08/2022,04:16:33,0.002,0.0,0.0,0.0
12/08/2022,04:17:32,0.003,0.0,0.0,0.0
12/08/2022,04:18:41,0.002,0.0,0.0,0.0
12/08/2022,04:19:33,0.003,0.0,0.0,0.0
12/08/2022,04:20:33,0.002,0.0,0.0,0.0
12/08/2022,04:21:41,0.002,0.0,0.0,0.0
12/08/2022,04:22:33,0.002,0.0,0.0,0.0
12/08/2022,04:23:33,0.003,0.0,0.0,0.0
12/08/2022,04:24:41,0.003,0.0,0.0,0.0
12/08/2022,04:25:33,0.003,0.0,0.0,0.0
12/08/2022,04:26:33,0.002,0.0,0.0,0.0
12/08/2022,04:27:32,0.003,0.0,0.0,0.0
12/08/2022,04:28:33,0.003,0.0,0.0,0.0
12/08/2022,04:29:41,0.003,0.0,0.0,0.0
12/08/2022,04:30:33,0.002,0.0,0.0,0.0
12/08/2022,04:31:32,0.003,0.0,0.0,0.0
12/08/2022,04:32:41,0.003,0.0,0.0,0.0
12/08/2022,04:33:32,0.002,0.0,0.0,0.0
12/08/2022,04:34:33,0.003,0.0,0.0,0.0
12/08/2022,04:35:33,0.003,0.0,0.0,0.0
12/08/2022,04:36:33,0.002,0.0,0.0,0.0
12/08/2022,04:37:33,0.003,0.0,0.0,0.0
12/08/2022,04:38:33,0.003,0.0,0.0,0.0
12/08/2022,04:39:33,0.003,0.0,0.0,0.0
12/08/2022,04:40:33,0.004,0.0,0.0,0.0
12/08/2022,04:41:33,0.004,0.0,0.0,0.0
12/08/2022,04:42:32,0.003,0.0,0.0,0.0
12/08/2022,04:43:32,0.003,0.0,0.0,0.0
12/08/2022,04:44:33,0.005,0.0,0.0,0.0
12/08/2022,04:45:32,0.003,0.0,0.0,0.0
12/08/2022,04:46:33,0.002,0.0,0.0,0.0
12/08/2022,04:47:33,0.004,0.0,0.0,0.0
12/08/2022,04:48:33,0.005,0.0,0.0,0.0
12/08/2022,04:49:33,0.004,0.0,0.0,0.0
12/08/2022,04:50:33,0.005,0.0,0.0,0.0
12/08/2022,04:51:33,0.005,0.0,0.0,0.0
12/08/2022,04:52:33,0.004,0.0,0.0,0.0
12/08/2022,04:53:33,0.005,0.0,0.0,0.0
12/08/2022,04:54:33,0.005,0.0,0.0,0.0
12/08/2022,04:55:41,0.006,0.0,0.0,0.0
12/08/2022,04:56:33,0.005,0.0,0.0,0.0
12/08/2022,04:57:33,0.006,0.0,0.0,0.0
12/08/2022,04:58:33,0.006,0.0,0.0,0.0
12/08/2022,04:59:33,0.006,0.0,0.0,0.0
12/08/2022,05:00:41,0.006,0.0,0.0,0.0
12/08/2022,05:01:33,0.007,0.0,0.0,0.0
12/08/2022,05:02:34,0.006,0.0,0.0,0.0
12/08/2022,05:03:33,0.007,0.0,0.0,0.0
12/08/2022,05:04:33,0.006,0.0,0.001,0.001
12/08/2022,05:05:33,0.006,0.0,0.001,0.0
12/08/2022,05:06:33,0.007,0.0,0.001,0.0
12/08/2022,05:07:33,0.007,0.0,0.001,0.0
12/08/2022,05:08:33,0.009,0.0,0.001,0.0
12/08/2022,05:09:33,0.008,0.0,0.001,0.0
12/08/2022,05:10:33,0.009,0.0,0.001,0.0
12/08/2022,05:11:33,0.008,0.0,0.001,0.0
12/08/2022,05:12:33,0.008,0.0,0.002,0.001
12/08/2022,05:13:33,0.010,0.0,0.002,0.0
12/08/2022,05:14:32,0.010,0.0,0.002,0.0
12/08/2022,05:15:33,0.010,0.0,0.002,0.0
12/08/2022,05:16:33,0.011,0.0,0.002,0.0
12/08/2022,05:17:33,0.011,0.0,0.002,0.0
12/08/2022,05:18:33,0.011,0.0,0.003,0.001
12/08/2022,05:19:33,0.012,0.0,0.003,0.0
12/08/2022,05:20:33,0.012,0.0,0.003,0.0
12/08/2022,05:21:33,0.013,0.0,0.003,0.0
12/08/2022,05:22:33,0.013,0.0,0.003,0.0
12/08/2022,05:23:33,0.013,0.0,0.004,0.001
12/08/2022,05:24:33,0.015,0.0,0.004,0.0
12/08/2022,05:25:33,0.015,0.0,0.004,0.0
12/08/2022,05:26:41,0.016,0.0,0.004,0.0
12/08/2022,05:27:33,0.016,0.0,0.005,0.001
12/08/2022,05:28:33,0.016,0.0,0.005,0.0
12/08/2022,05:29:41,0.016,0.0,0.005,0.0
12/08/2022,05:30:24,0.016,0.0,0.005,0.0
12/08/2022,05:31:34,0.018,0.0,0.006,0.001
12/08/2022,05:32:33,0.018,0.0,0.006,0.0
12/08/2022,05:33:33,0.019,0.0,0.006,0.0
12/08/2022,05:34:42,0.020,0.0,0.007,0.001
12/08/2022,05:35:33,0.021,0.0,0.007,0.0
12/08/2022,05:36:33,0.021,0.0,0.007,0.0
12/08/2022,05:37:33,0.022,0.0,0.008,0.001
12/08/2022,05:38:33,0.022,0.0,0.008,0.0
12/08/2022,05:39:33,0.023,0.0,0.008,0.0
12/08/2022,05:40:33,0.024,0.0,0.009,0.001
12/08/2022,05:41:33,0.025,0.0,0.009,0.0
12/08/2022,05:42:33,0.025,0.0,0.01,0.001
12/08/2022,05:43:33,0.026,0.0,0.01,0.0
12/08/2022,05:44:33,0.026,0.0,0.011,0.001
12/08/2022,05:45:33,0.028,0.0,0.011,0.0
12/08/2022,05:46:33,0.029,0.0,0.011,0.0
12/08/2022,05:47:33,0.030,0.0,0.012,0.001
12/08/2022,05:48:33,0.030,0.0,0.012,0.0
12/08/2022,05:49:33,0.031,0.0,0.013,0.001
12/08/2022,05:50:33,0.032,0.0,0.013,0.0
12/08/2022,05:51:35,0.033,0.0,0.014,0.001
12/08/2022,05:52:33,0.034,0.0,0.015,0.001
12/08/2022,05:53:33,0.035,0.0,0.015,0.0
12/08/2022,05:54:33,0.037,0.0,0.016,0.001
12/08/2022,05:55:33,0.038,0.0,0.016,0.0
12/08/2022,05:56:33,0.038,0.0,0.017,0.001
12/08/2022,05:57:33,0.038,0.0,0.018,0.001
12/08/2022,05:58:33,0.041,0.0,0.018,0.0
12/08/2022,05:59:33,0.042,0.0,0.019,0.001
12/08/2022,06:00:42,0.042,0.0,0.02,0.001
12/08/2022,06:01:33,0.044,0.0,0.02,0.0
12/08/2022,06:02:33,0.045,0.0,0.021,0.001
12/08/2022,06:03:33,0.046,0.0,0.022,0.001
12/08/2022,06:04:33,0.046,0.0,0.023,0.001
12/08/2022,06:05:33,0.049,0.0,0.024,0.001
12/08/2022,06:06:34,0.050,0.0,0.024,0.0
12/08/2022,06:07:35,0.051,0.0,0.025,0.001
12/08/2022,06:08:41,0.052,0.0,0.026,0.001
12/08/2022,06:09:33,0.054,0.0,0.027,0.001
12/08/2022,06:10:33,0.056,0.0,0.028,0.001
12/08/2022,06:11:34,0.057,0.0,0.029,0.001
12/08/2022,06:12:33,0.058,0.0,0.03,0.001
12/08/2022,06:13:34,0.060,0.0,0.031,0.001
12/08/2022,06:14:33,0.061,0.0,0.032,0.001
12/08/2022,06:15:33,0.063,0.0,0.033,0.001
12/08/2022,06:16:33,0.063,0.0,0.034,0.001
12/08/2022,06:17:34,0.066,0.0,0.035,0.001
12/08/2022,06:18:33,0.067,0.0,0.036,0.001
12/08/2022,06:19:33,0.069,0.0,0.037,0.001
12/08/2022,06:20:33,0.071,0.0,0.038,0.001
12/08/2022,06:21:33,0.072,0.0,0.039,0.001
12/08/2022,06:22:33,0.074,0.0,0.041,0.002
12/08/2022,06:23:33,0.076,0.0,0.042,0.001
12/08/2022,06:24:33,0.078,0.0,0.043,0.001
12/08/2022,06:25:33,0.079,0.0,0.045,0.002
12/08/2022,06:26:33,0.080,0.0,0.046,0.001
12/08/2022,06:27:33,0.082,0.0,0.047,0.001
12/08/2022,06:28:33,0.083,0.0,0.049,0.002
12/08/2022,06:29:33,0.086,0.0,0.05,0.001
12/08/2022,06:30:33,0.088,0.0,0.051,0.001
12/08/2022,06:31:42,0.090,0.0,0.053,0.002
12/08/2022,06:32:34,0.092,0.0,0.055,0.002
12/08/2022,06:33:34,0.094,0.0,0.056,0.001
12/08/2022,06:34:34,0.095,0.0,0.058,0.002
12/08/2022,06:35:33,0.099,0.0,0.059,0.001
12/08/2022,06:36:33,0.103,0.0,0.061,0.002
12/08/2022,06:37:33,0.106,0.0,0.063,0.002
12/08/2022,06:38:34,0.108,0.0,0.064,0.001
12/08/2022,06:39:33,0.109,0.0,0.066,0.002
12/08/2022,06:40:33,0.114,0.0,0.068,0.002
12/08/2022,06:41:33,0.116,0.0,0.07,0.002
12/08/2022,06:42:33,0.111,0.0,0.072,0.002
12/08/2022,06:43:33,0.121,0.0,0.074,0.002
12/08/2022,06:44:33,0.124,0.0,0.076,0.002
12/08/2022,06:45:34,0.127,0.0,0.078,0.002
12/08/2022,06:46:33,0.128,0.0,0.08,0.002
12/08/2022,06:47:33,0.132,0.0,0.082,0.002
12/08/2022,06:48:33,0.134,0.0,0.085,0.003
12/08/2022,06:49:33,0.137,0.0,0.087,0.002
12/08/2022,06:50:33,0.139,0.0,0.089,0.002
12/08/2022,06:51:33,0.142,0.0,0.091,0.002
12/08/2022,06:52:33,0.145,0.0,0.094,0.003
12/08/2022,06:53:33,0.147,0.0,0.096,0.002
12/08/2022,06:54:33,0.151,0.0,0.099,0.003
12/08/2022,06:55:33,0.154,0.0,0.101,0.002
12/08/2022,06:56:34,0.156,0.0,0.104,0.003
12/08/2022,06:57:42,0.160,0.0,0.107,0.003
12/08/2022,06:58:33,0.163,0.0,0.109,0.002
12/08/2022,06:59:33,0.166,0.0,0.112,0.003
12/08/2022,07:00:34,0.170,0.0,0.115,0.003
12/08/2022,07:01:33,0.172,0.0,0.118,0.003
12/08/2022,07:02:42,0.176,0.0,0.121,0.003
12/08/2022,07:03:33,0.180,0.0,0.123,0.002
12/08/2022,07:04:34,0.183,0.0,0.127,0.004
12/08/2022,07:05:41,0.187,0.0,0.13,0.003
12/08/2022,07:06:33,0.190,0.0,0.133,0.003
12/08/2022,07:07:33,0.193,0.0,0.136,0.003
12/08/2022,07:08:33,0.196,0.0,0.139,0.003
12/08/2022,07:09:43,0.200,0.0,0.143,0.004
12/08/2022,07:10:32,0.205,0.0,0.146,0.003
12/08/2022,07:11:34,0.206,0.0,0.149,0.003
12/08/2022,07:12:33,0.211,0.0,0.153,0.004
12/08/2022,07:13:34,0.216,0.0,0.156,0.003
12/08/2022,07:14:33,0.219,1.0,0.16,0.004
12/08/2022,07:15:33,0.222,1.0,0.164,0.004
12/08/2022,07:16:33,0.227,1.0,0.167,0.003
12/08/2022,07:17:33,0.232,1.0,0.171,0.004
12/08/2022,07:18:33,0.235,1.0,0.175,0.004
12/08/2022,07:19:33,0.238,1.0,0.179,0.004
12/08/2022,07:20:33,0.242,1.0,0.183,0.004
12/08/2022,07:21:33,0.247,1.0,0.187,0.004
12/08/2022,07:22:33,0.251,1.0,0.191,0.004
12/08/2022,07:23:41,0.257,1.0,0.196,0.005
12/08/2022,07:24:34,0.259,1.0,0.2,0.004
12/08/2022,07:25:33,0.264,1.0,0.204,0.004
12/08/2022,07:26:33,0.268,1.0,0.209,0.005
12/08/2022,07:27:33,0.273,1.0,0.213,0.004
12/08/2022,07:28:33,0.277,1.0,0.218,0.005
12/08/2022,07:29:34,0.283,1.0,0.222,0.004
12/08/2022,07:30:33,0.287,1.0,0.227,0.005
12/08/2022,07:31:42,0.292,1.0,0.233,0.006
12/08/2022,07:32:33,0.296,1.0,0.237,0.004
12/08/2022,07:33:33,0.300,1.0,0.242,0.005
12/08/2022,07:34:34,0.306,1.0,0.247,0.005
12/08/2022,07:35:33,0.309,1.0,0.252,0.005
12/08/2022,07:36:34,0.315,1.0,0.257,0.005
12/08/2022,07:37:33,0.319,1.0,0.263,0.006
12/08/2022,07:38:36,0.325,1.0,0.268,0.005
12/08/2022,07:39:33,0.329,1.0,0.273,0.005
12/08/2022,07:40:33,0.334,1.0,0.279,0.006
12/08/2022,07:41:33,0.341,1.0,0.284,0.005
12/08/2022,07:42:41,0.345,1.0,0.291,0.007
12/08/2022,07:43:34,0.350,1.0,0.296,0.005
12/08/2022,07:44:33,0.354,1.0,0.302,0.006
12/08/2022,07:45:33,0.359,1.0,0.308,0.006
12/08/2022,07:46:34,0.365,1.0,0.314,0.006
12/08/2022,07:47:33,0.370,1.0,0.32,0.006
12/08/2022,07:48:33,0.375,1.0,0.326,0.006
12/08/2022,07:49:33,0.382,1.0,0.333,0.007
12/08/2022,07:50:34,0.387,1.0,0.339,0.006
12/08/2022,07:51:33,0.391,1.0,0.345,0.006
12/08/2022,07:52:34,0.397,1.0,0.352,0.007
12/08/2022,07:53:33,0.403,1.0,0.359,0.007
12/08/2022,07:54:33,0.407,1.0,0.365,0.006
12/08/2022,07:55:33,0.412,1.0,0.372,0.007
12/08/2022,07:56:33,0.418,1.0,0.379,0.007
12/08/2022,07:57:34,0.424,1.0,0.386,0.007
12/08/2022,07:58:33,0.429,1.0,0.393,0.007
12/08/2022,07:59:34,0.435,1.0,0.401,0.008
12/08/2022,08:00:41,0.441,1.0,0.409,0.008
12/08/2022,08:01:33,0.446,1.0,0.415,0.006
12/08/2022,08:02:41,0.452,1.0,0.424,0.009
12/08/2022,08:03:33,0.457,1.0,0.43,0.006
12/08/2022,08:04:33,0.463,1.0,0.438,0.008
12/08/2022,08:05:42,0.469,1.0,0.447,0.009
12/08/2022,08:06:33,0.473,1.0,0.453,0.006
12/08/2022,08:07:34,0.479,1.0,0.462,0.009
12/08/2022,08:08:41,0.485,1.0,0.471,0.009
12/08/2022,08:09:33,0.490,1.0,0.478,0.007
12/08/2022,08:10:33,0.496,1.0,0.486,0.008
12/08/2022,08:11:33,0.500,1.0,0.494,0.008
12/08/2022,08:12:33,0.505,1.0,0.502,0.008
12/08/2022,08:13:34,0.511,1.0,0.511,0.009
12/08/2022,08:14:33,0.517,1.0,0.52,0.009
12/08/2022,08:15:33,0.520,1.0,0.528,0.008
12/08/2022,08:16:34,0.523,1.0,0.537,0.009
12/08/2022,08:17:33,0.530,1.0,0.546,0.009
12/08/2022,08:18:34,0.533,1.0,0.555,0.009
12/08/2022,08:19:33,0.539,1.0,0.564,0.009
12/08/2022,08:20:33,0.544,1.0,0.573,0.009
12/08/2022,08:21:34,0.549,1.0,0.582,0.009
12/08/2022,08:22:34,0.553,1.0,0.591,0.009
12/08/2022,08:23:34,0.558,1.0,0.6,0.009
12/08/2022,08:24:34,0.566,1.0,0.609,0.009
12/08/2022,08:25:33,0.574,1.0,0.619,0.01
12/08/2022,08:26:34,0.580,1.0,0.629,0.01
12/08/2022,08:27:33,0.588,1.0,0.638,0.009
12/08/2022,08:28:33,0.595,1.0,0.648,0.01
12/08/2022,08:29:34,0.603,1.0,0.658,0.01
12/08/2022,08:30:33,0.608,1.0,0.668,0.01
12/08/2022,08:31:42,0.617,1.0,0.68,0.012
12/08/2022,08:32:33,0.625,1.0,0.689,0.009
12/08/2022,08:33:33,0.631,1.0,0.699,0.01
12/08/2022,08:34:33,0.639,1.0,0.71,0.011
12/08/2022,08:35:33,0.648,1.0,0.721,0.011
12/08/2022,08:36:41,0.655,2.0,0.733,0.012
12/08/2022,08:37:34,0.662,2.0,0.742,0.009
12/08/2022,08:38:33,0.669,2.0,0.753,0.011
12/08/2022,08:39:34,0.677,2.0,0.765,0.012
12/08/2022,08:40:33,0.687,2.0,0.776,0.011
12/08/2022,08:41:33,0.695,2.0,0.788,0.012
12/08/2022,08:42:20,0.702,2.0,0.797,0.009
12/08/2022,08:43:34,0.711,2.0,0.811,0.014
12/08/2022,08:44:33,0.720,2.0,0.823,0.012
12/08/2022,08:45:42,0.732,2.0,0.837,0.014
12/08/2022,08:46:34,0.738,2.0,0.847,0.01
12/08/2022,08:47:41,0.747,2.0,0.861,0.014
12/08/2022,08:48:34,0.755,2.0,0.872,0.011
12/08/2022,08:49:33,0.764,2.0,0.885,0.013
12/08/2022,08:50:33,0.771,2.0,0.897,0.012
12/08/2022,08:51:24,0.779,2.0,0.909,0.012
12/08/2022,08:52:34,0.789,2.0,0.924,0.015
12/08/2022,08:53:34,0.793,2.0,0.937,0.013
12/08/2022,08:54:34,0.804,2.0,0.95,0.013
12/08/2022,08:55:33,0.812,2.0,0.963,0.013
12/08/2022,08:56:33,0.821,2.0,0.977,0.014
12/08/2022,08:57:34,0.827,2.0,0.991,0.014
12/08/2022,08:58:33,0.837,2.0,1.005,0.014
12/08/2022,08:59:26,0.842,2.0,1.017,0.012
12/08/2022,09:00:34,0.850,2.0,1.033,0.016
12/08/2022,09:01:33,0.857,2.0,1.047,0.014
12/08/2022,09:02:41,0.865,2.0,1.064,0.017
12/08/2022,09:03:33,0.869,2.0,1.076,0.012
12/08/2022,09:04:42,0.881,2.0,1.093,0.017
12/08/2022,09:05:33,0.887,2.0,1.105,0.012
12/08/2022,09:06:33,0.895,2.0,1.12,0.015
12/08/2022,09:07:41,0.904,2.0,1.137,0.017
12/08/2022,09:08:33,0.908,2.0,1.15,0.013
12/08/2022,09:09:33,0.919,2.0,1.166,0.016
12/08/2022,09:10:41,0.927,2.0,1.183,0.017
12/08/2022,09:11:33,0.936,2.0,1.196,0.013
12/08/2022,09:12:33,0.944,2.0,1.212,0.016
12/08/2022,09:13:33,0.951,2.0,1.227,0.015
12/08/2022,09:14:34,0.959,2.0,1.244,0.017
12/08/2022,09:15:33,0.968,2.0,1.26,0.016
12/08/2022,09:16:34,0.976,2.0,1.276,0.016
12/08/2022,09:17:34,0.984,2.0,1.292,0.016
12/08/2022,09:18:33,0.991,2.0,1.308,0.016
12/08/2022,09:19:34,0.999,2.0,1.326,0.018
12/08/2022,09:20:33,1.009,2.0,1.342,0.016
12/08/2022,09:21:34,1.017,2.0,1.359,0.017
12/08/2022,09:22:35,1.026,2.0,1.376,0.017
12/08/2022,09:23:34,1.033,2.0,1.393,0.017
12/08/2022,09:24:34,1.040,2.0,1.411,0.018
12/08/2022,09:25:34,1.049,2.0,1.428,0.017
12/08/2022,09:26:34,1.055,2.0,1.446,0.018
12/08/2022,09:27:33,1.065,2.0,1.463,0.017
12/08/2022,09:28:33,1.072,2.0,1.481,0.018
12/08/2022,09:29:34,1.080,2.0,1.499,0.018
12/08/2022,09:30:34,1.088,3.0,1.517,0.018
12/08/2022,09:31:33,1.098,3.0,1.535,0.018
12/08/2022,09:32:24,1.104,3.0,1.551,0.016
12/08/2022,09:33:34,1.113,3.0,1.572,0.021
12/08/2022,09:34:33,1.120,3.0,1.591,0.019
12/08/2022,09:35:34,1.128,3.0,1.609,0.018
12/08/2022,09:36:34,1.134,3.0,1.628,0.019
12/08/2022,09:37:34,1.143,3.0,1.647,0.019
12/08/2022,09:38:33,1.149,3.0,1.666,0.019
12/08/2022,09:39:34,1.157,3.0,1.686,0.02
12/08/2022,09:40:34,1.164,3.0,1.705,0.019
12/08/2022,09:41:33,1.173,3.0,1.724,0.019
12/08/2022,09:42:34,1.180,3.0,1.744,0.02
12/08/2022,09:43:33,1.189,3.0,1.764,0.02
12/08/2022,09:44:34,1.196,3.0,1.784,0.02
12/08/2022,09:45:34,1.200,3.0,1.804,0.02
12/08/2022,09:46:42,1.210,3.0,1.826,0.022
12/08/2022,09:47:33,1.217,3.0,1.844,0.018
12/08/2022,09:48:34,1.225,3.0,1.864,0.02
12/08/2022,09:49:42,1.234,3.0,1.887,0.023
12/08/2022,09:50:34,1.238,3.0,1.905,0.018
12/08/2022,09:51:34,1.246,3.0,1.926,0.021
12/08/2022,09:52:33,1.254,3.0,1.947,0.021
12/08/2022,09:53:34,1.263,3.0,1.968,0.021
12/08/2022,09:54:49,1.270,3.0,1.994,0.026
12/08/2022,09:56:51,1.284,3.0,2.037,0.043
12/08/2022,09:58:34,1.299,3.0,2.075,0.038
12/08/2022,09:59:34,1.306,3.0,2.096,0.021
12/08/2022,10:00:41,1.314,3.0,2.121,0.025
12/08/2022,10:01:42,1.322,3.0,2.143,0.022
12/08/2022,10:02:34,1.328,3.0,2.162,0.019
12/08/2022,10:03:33,1.332,3.0,2.184,0.022
12/08/2022,10:04:34,1.341,3.0,2.207,0.023
12/08/2022,10:05:44,1.348,3.0,2.233,0.026
12/08/2022,10:07:24,1.364,3.0,2.27,0.037
12/08/2022,10:08:34,1.374,3.0,2.297,0.027
12/08/2022,10:09:34,1.380,3.0,2.32,0.023
12/08/2022,10:10:34,1.388,3.0,2.343,0.023
12/08/2022,10:11:34,1.396,3.0,2.366,0.023
12/08/2022,10:12:33,1.404,3.0,2.39,0.024
12/08/2022,10:13:33,1.413,3.0,2.413,0.023
12/08/2022,10:14:34,1.421,3.0,2.437,0.024
12/08/2022,10:15:33,1.429,3.0,2.46,0.023